{"data":{"norad_id":59484,"epoch":"2026-09-21T04:30:50.317632Z","epoch_age_seconds":105595,"freshness":"FRESH","line1":"1 59484U 24071A   26264.18808238  .00002187  00000+0  89003-4 0  9993","line2":"2 59484  43.0027 315.7524 0001089 275.5117  84.5610 15.27571121138100","mean_motion":15.27571121,"eccentricity":0.0001089,"inclination_deg":43.0027,"raan_deg":315.7524,"arg_perigee_deg":275.5117,"mean_anomaly_deg":84.561,"bstar":8.9003e-5,"rev_number":13810,"period_min":94.267296638688,"perigee_km":482.32849702745,"apogee_km":483.82286914983,"semimajor_km":6861.2126830886,"source":"CELESTRAK","updated_at":"2026-09-22T09:00:48.952143Z"}}